Regional Weather Roundup
Issued by NWS

Home | Current Version | Previous Version | Text Only | Print | Product List | Glossary On
Versions: 1 2 3 4 5 6 7 8 9 10 11 12 13 14 15 16 17 18 19 20 21 22 23 24 25 26 27 28 29 30 31 32 33 34 35 36 37 38 39 40 41 42 43 44 45 46 47 48 49 50
000
ASCA44 KEWX 091820
RWRMX

LATIN AMERICA AND CARIBBEAN REGIONAL WEATHER ROUNDUP
NATIONAL WEATHER SERVICE AUSTIN/SAN ANTONIO TX
1200 PM CST FRI DEC 09 2016

NOTE: "FAIR" INDICATED FEW OR NO CLOUDS BELOW 12,000 FEET WITH NO
SIGNIFICANT WEATHER AND/OR OBSTRUCTIONS TO VISIBILITY.

BAJA CALIFORNIA

CITY           SKY/WX    TMP DP  RH WIND       PRES   REMARKS
LORETO         SUNNY     75  45  33 N12       30.11S
LA PAZ         MOSUNNY   75  57  53 N18       30.11S
MEXICALI       PTSUNNY   59  36  41 NW8       30.27R
S.J. DEL CABO  SUNNY     79  54  41 W13       30.07F
TIJUANA        PTSUNNY   61  46  59 CALM      30.30S

NORTHWESTERN MEXICO

CITY           SKY/WX    TMP DP  RH WIND       PRES   REMARKS
CULIACAN       SUNNY     79  46  31 N3        30.02F
DURANGO        SUNNY     52  39  62 N5        30.45F
GUAYMAS        SUNNY     75  46  35 N12       30.06F
HERMOSILLO     SUNNY     72  43  35 W3        30.15F
CD. JUAREZ     CLOUDY    36  27  69 E5        30.40S WCI  32
LOS MOCHIS     SUNNY     72  52  49 N20       30.07S
OBREGON        SUNNY     75  43  31 NW3       30.05F

NORTHEASTERN MEXICO

CITY           SKY/WX    TMP DP  RH WIND       PRES   REMARKS
CHIHUAHUA      CLOUDY    43  37  81 CALM      30.45
MATAMOROS      CLOUDY    41  34  75 NW16      30.53F WCI  33
MONCLOVA       CLOUDY    46  34  61 CALM      30.53F FOG
MONTERREY      CLOUDY    45  34  65 NW6       30.55F WCI  41
NUEVO LAREDO   CLOUDY    43  27  52 CALM      30.60F
PIEDRAS NEGRAS CLOUDY    43  27  52 CALM      30.61S
REYNOSA        CLOUDY    43  28  56 NW12      30.57F WCI  37
SALTILLO       FOG       39  39 100 CALM      30.48F VSB 5/8
TORREON        CLOUDY    52  39  62 CALM      30.45F
CD. VICTORIA   CLOUDY    46  39  76 NW12      30.54S WCI  41

WESTERN MEXICO

CITY           SKY/WX    TMP DP  RH WIND       PRES   REMARKS
AGUASCALIENTES MOSUNNY   66  45  45 NE5       30.42F
COLIMA         SUNNY     79  61  53 CALM      30.12F
DEL BAJIO      PTSUNNY   70  50  49 SE7       30.44F
GUADALAJARA    SUNNY     72  50  46 SE9       30.31F
MANZANILLO     MOSUNNY   82  73  74 SE9       29.97F
MAZATLAN       MOSUNNY   81  57  44 S5        30.02S
P. VALLARTA    MOSUNNY   82  66  57 SW3       30.00F
URUAPAN        SUNNY     75  55  50 CALM      30.28F
ZACATECAS      MOSUNNY   63  43  48 SW6       30.43F

CENTRAL MEXICO

CITY           SKY/WX    TMP DP  RH WIND       PRES   REMARKS
CUERNAVACA     SUNNY     77  54  44 NW6       30.24F
MEXICO CITY    PTSUNNY   63  45  51 N3G16     30.48F
MORELIA        SUNNY     70  52  52 N3        30.36F
POZA RICA      FOG       54  54 100 NW9       30.45F VSB 1
PUEBLA         MOSUNNY   66  46  48 NE16      30.44F
QUERETARO      MOSUNNY   61  46  59 SE17      30.50S
S. LUIS POTOSI CLOUDY    55  43  62 E14       30.47F
TAMPICO        DRIZZLE   52  50  93 W12       30.44F FOG
TOLUCA         MOSUNNY   63  45  51 W9        30.52F

SOUTHERN MEXICO

CITY           SKY/WX    TMP DP  RH WIND       PRES   REMARKS
ACAPULCO       SUNNY     86  75  70 W6        29.96F HX  95
B. DE HUATULCO PTSUNNY   88  77  70 S12       30.03F HAZE    HX 100
OAXACA         PTSUNNY   72  52  49 N12       30.33F
P. ESCONDIDO   MOSUNNY   84  72  65 S9        30.06F
VERACRUZ       CLOUDY    70  61  73 N14       30.20F
ZIHUATANEJO    SUNNY     88  73  62 SW5       29.97F HX  96

YUCATAN PENINSULA

CITY           SKY/WX    TMP DP  RH WIND       PRES   REMARKS
CAMPECHE       MOSUNNY   88  72  58 SE7       30.04F HX  94
CANCUN         MOSUNNY   84  70  61 NE6       30.08F
CHETUMAL       PTSUNNY   86  72  62 N7        30.05F HX  92
CD. DEL CARMEN MOSUNNY   84  72  65 S5        30.08F
COZUMEL        MOSUNNY   86  73  66 E8        30.06F HX  93
MERIDA         PTSUNNY   86  68  54 NE7       30.07F
MINATITLAN     MOSUNNY   73  66  78 NW23G46   30.13F
TAPACHULA      MOSUNNY   90  75  62 SW7       29.91F HX 100
TUX. GUTIERREZ MOSUNNY   81  63  54 W17       30.08F
VILLAHERMOSA   PTSUNNY   79  73  83 W10       30.13F

CENTRAL AMERICA

CITY           SKY/WX    TMP DP  RH WIND       PRES   REMARKS
BELIZE CITY    MOSUNNY   84  77  79 NE13      30.06F HX  94
MANAGUA        PTCLDY    88  68  51 E14       29.89F HX  91

CARIBBEAN

CITY           SKY/WX    TMP DP  RH WIND       PRES   REMARKS
ARUBA          LGT RAIN  77  73  88 E8        29.89F
CURACAO        LGT RAIN  77  75  94 VRB2      29.89F
KINGSTON       MOSUNNY   86  73  66 S10       29.94F HX  93
NASSAU         PTSUNNY   73  66  78 N9        30.14F
SAN JUAN       PTSUNNY   86  73  66 NE13      30.00F HX  93
SANTO DOMINGO  MOSUNNY   86  75  70 NE9       29.97F HX  95
ST. CROIX      MOSUNNY   84  75  74 NE10      29.99  HX  92
ST. KITTS      MOSUNNY   84  73  70 E13       29.97S HX  91
ST. MAARTEN    MOSUNNY   84  73  70 E13       29.97F HX  91
ST. THOMAS     MOSUNNY   86  75  70 E10       29.99  HX  95

$$




USA.gov is the U.S. government's official web portal to all federal, state and local government web resources and services.